ロニオス彗星

182P/LONEOS (2002)

English version
Home page
Updated on March 7, 2007

---------------------------------------------------------------------

・ プロフィール

符号 182P/2001 WF2
発見日 2001年11月17日
発見光度 18.9等
発見者 Lowell Observatory Near-Earth Object Search

・ 軌道要素

Epoch 2002 Feb. 15.0 TT = JDT 2452320.5
T 2002 Jan. 29.84804 TT                                 MPC
q   0.9763511            (2000.0)            P               Q
n   0.19656246     Peri.   51.35236     -0.56192571     -0.77787496
a   2.9295595      Node    75.13262     +0.63927749     -0.62422348
e   0.6667243      Incl.   16.92268     +0.52494170     -0.07249552
P   5.01

・ 星図

・ 光度変化

        H = 19.0  G = 0.15

---------------------------------------------------------------------

軌道要素は Dr. Brian G. Marsden の計算によるもので、 M.P.E.C. 2002-C94 に掲載されたものです。
星図は StellaNavigator Ver.2.0 for Windows (アストロアーツ 編著 / アスキー出版局刊) で作成したものです。
光度グラフはComet for Windowsで作成したものです。

---------------------------------------------------------------------

Copyright(C) Seiichi Yoshida (comet@aerith.net). All rights reserved.